[[{"header":{"parameterUnit":"m.s-1","parameterCategory":2,"la1":30.2991,"la2":30.254,"lo1":-89.0895,"lo2":-89.0444,"dy":0.0017,"dx":0.0017,"nx":28,"ny":28,"refTime":"2024-08-14T21:00:00:Z","depth":"0","parameterNumber":2,"parameterNumberName":"U-component_of_CURRENTS"},"data":[0,0,0,0,0,0,0,0,0,0,0,0,0,0,0,0,0,0,0,0,0,0,0,0,0,0,0,0,0,0,0,0,0,0,0,0,0,0,0,0,0,0,0,0,0,0,0,0,0,0,0,0,0,0,0,0,0,0,0.5189,0.519,0,0.5157,0.5156,0.5155,0.5117,0.5117,0.5117,0.5117,0.511,0.511,0.511,0,0,0,0,0,0,0,0,0,0,0,0,0,0.5144,0.5145,0.5189,0.519,0.519,0.5157,0.5156,0.5155,0.5117,0.5117,0.5117,0.5117,0.5111,0.511,0.511,0,0,0,0,0,0,0,0,0,0,0,0,0,0.5137,0.5145,0.5189,0.5172,0.5171,0.5158,0.5156,0.5155,0.5117,0.5117,0.5117,0.5117,0.5111,0.511,0.511,0.5107,0,0,0.5109,0.5109,0,0,0,0,0,0,0,0,0.5137,0.5138,0.5174,0.5173,0.5172,0.5147,0.5138,0.5142,0.5117,0.513,0.5117,0.5118,0.513,0.5128,0.5111,0.5106,0.5106,0.5109,0.5109,0.5109,0.5109,0,0,0,0,0,0,0,0.5138,0.5138,0.517,0.5175,0.5173,0.5141,0.514,0.5138,0.5125,0.5129,0.5128,0.5135,0.5128,0.5112,0.5111,0.5106,0.5109,0.5109,0.5108,0.5108,0.5151,0.5152,0,0,0,0,0,0,0.516,0.5139,0.5171,0.5169,0.5162,0.5143,0.5141,0.515,0.5125,0.5123,0.5135,0.5134,0.5112,0.5112,0.5111,0.5119,0.5109,0.5108,0.5108,0.515,0.5151,0.5153,0,0,0,0,0,0,0.5159,0.5163,0.5172,0.5159,0.5159,0.5145,0.5154,0.5149,0.5138,0.513,0.5127,0.5131,0.5112,0.5111,0.5112,0.5119,0.5108,0.5108,0.5148,0.515,0.5152,0.5128,0,0,0,0,0,0,0.5158,0.5163,0.5176,0.5161,0.5161,0.5174,0.5154,0.5149,0.5146,0.5143,0.5126,0.5125,0.5112,0.5113,0.5112,0.5118,0.5108,0.5146,0.5149,0.5151,0.5127,0.5129,0.5131,0,0,0,0,0,0.5156,0.5166,0.5176,0.518,0.5179,0.5175,0.5171,0.5156,0.5146,0.5144,0.513,0.5125,0.5129,0.5113,0.5111,0.5118,0.5145,0.5148,0.5151,0.5126,0.5129,0.513,0,0,0,0,0,0,0.5163,0.5163,0.5174,0.5188,0.5192,0.5171,0.5164,0.5161,0.5146,0.5141,0.5128,0.5126,0.5147,0.5137,0.512,0.5144,0.5143,0.5145,0.5124,0.5126,0.5128,0.5182,0.5107,0,0,0,0,0,0.5173,0.5166,0.5182,0.519,0.5193,0.5182,0.5179,0.5174,0.5162,0.5154,0.5141,0.514,0.5157,0.5143,0.5163,0.515,0.5206,0.5162,0.5164,0.5165,0.5212,0.5291,0.5305,0.5163,0.5162,0.5162,0,0,0.5176,0.5177,0.5174,0.5189,0.5181,0.5179,0.5177,0.5174,0.5171,0.5158,0.5139,0.5157,0.5166,0.5168,0.5174,0.5152,0.5232,0.5169,0.5169,0.5217,0.5296,0.531,0.5322,0.5165,0.5164,0.5164,0,0,0.5162,0.5182,0.5169,0.5174,0.5181,0.5177,0.5183,0.5174,0.517,0.5162,0.5172,0.5207,0.5177,0.5207,0.5213,0.5242,0.5261,0.5226,0.5243,0.5317,0.533,0.5342,0.5411,0.543,0.5197,0.5197,0.5197,0,0.5165,0.516,0.5167,0.5162,0.5159,0.5179,0.5169,0.5174,0.5165,0.5165,0.5158,0.5191,0.5213,0.5242,0.5264,0.525,0.5283,0.5221,0.5319,0.5332,0.5345,0.5414,0.5435,0.5196,0.5196,0.5196,0.5196,0,0.514,0.5145,0.5137,0.5132,0.5134,0.513,0.5148,0.515,0.5147,0.5153,0.519,0.5225,0.5248,0.5258,0.527,0.5358,0.535,0.5331,0.531,0.5358,0.5427,0.5449,0.5195,0.5195,0.5195,0.5195,0,0,0.51,0.5115,0.5109,0.51,0.5117,0.5104,0.5117,0.5127,0.513,0.5153,0.5164,0.524,0.5275,0.5296,0.5318,0.539,0.5518,0.5394,0.5398,0.5458,0.5674,0.5442,0.5444,0.549,0.5494,0.5498,0.5679,0,0.507,0.5052,0.5069,0.5044,0.5032,0.5059,0.5063,0.5081,0.5101,0.5123,0.5197,0.5233,0.5277,0.5296,0.5382,0.5506,0.5578,0.5472,0.5628,0.5634,0.5416,0.5462,0.5137,0.5251,0.5701,0.5704,0.5707,0,0.5017,0.5017,0.4992,0.4989,0.4986,0.4982,0.4982,0.4996,0.5058,0.508,0.5146,0.5201,0.5349,0.5361,0.5603,0.5521,0.562,0.5701,0.5708,0.5527,0.5442,0.5282,0.5275,0.5136,0.5741,0.5739,0.5736,0,0.4938,0.4943,0.4916,0.4916,0.4933,0.4925,0.4936,0.4977,0.4982,0.5073,0.5094,0.5243,0.5325,0.5493,0.5662,0.5649,0.5898,0.5889,0.5772,0.5757,0.5536,0.5492,0.5412,0.6061,0.6061,0.6061,0.606,0,0.4869,0.484,0.488,0.4861,0.4834,0.4867,0.4849,0.4886,0.4941,0.4957,0.5079,0.513,0.5365,0.5505,0.5671,0.5773,0.5906,0.5812,0.5792,0.5511,0.5465,0.5378,0.535,0.6067,0.6066,0.6065,0.6063,0,0.4762,0.4791,0.4763,0.4789,0.4791,0.4771,0.4785,0.4775,0.4854,0.4888,0.4922,0.5084,0.5275,0.5456,0.573,0.5743,0.5713,0.5882,0.5523,0.5455,0.5163,0.5145,0.5005,0.488,0.5806,0.5801,0.5797,0,0.4691,0.4674,0.4698,0.4683,0.469,0.4678,0.466,0.472,0.4719,0.4852,0.4859,0.5036,0.5125,0.5383,0.5446,0.5612,0.5559,0.5375,0.5291,0.511,0.5083,0.4985,0.4886,0.5016,0.5006,0.4998,0.4992,0,0.4573,0.4597,0.4592,0.4572,0.4551,0.452,0.4513,0.45,0.4581,0.4626,0.4704,0.4792,0.4961,0.494,0.5067,0.5145,0.5055,0.5206,0.5128,0.4546,0.4332,0.4209,0.4954,0.4919,0.4926,0.4931,0.4935,0.4938,0.4485,0.4463,0.447,0.4428,0.4409,0.4347,0.427,0.4294,0.4283,0.4291,0.448,0.4477,0.4507,0.4621,0.4656,0.4417,0.4574,0.4304,0.4338,0.4288,0.4013,0.457,0.4418,0.4422,0.4426,0.4429,0.4432,0,0.4352,0.4339,0.4311,0.4245,0.4157,0.4199,0.4138,0.4043,0.3986,0.4035,0.407,0.3958,0.3871,0.3897,0.3738,0.3594,0.3509,0.3504,0.3332,0.3316,0.39,0.3703,0.3247,0.3247,0.3247,0.3248,0.3248,0.3248,0.4276,0.4203,0.4183,0.4,0.3948,0.3783,0.3721,0.3637,0.361,0.3451,0.3321,0.3346,0.3404,0.3294,0.3092,0.3017,0.2894,0.2668,0.2825,0.3254,0.3333,0.3408,0.3214,0.2664,0.2663,0.2055,0.205,0.2047]},{"header":{"parameterUnit":"m.s-1","parameterCategory":2,"la1":30.2991,"la2":30.254,"lo1":-89.0895,"lo2":-89.0444,"dy":0.0017,"dx":0.0017,"nx":28,"ny":28,"refTime":"2024-08-14T21:00:00:Z","depth":"0","parameterNumber":3,"parameterNumberName":"V-component_of_CURRENTS"},"data":[0,0,0,0,0,0,0,0,0,0,0,0,0,0,0,0,0,0,0,0,0,0,0,0,0,0,0,0,0,0,0,0,0,0,0,0,0,0,0,0,0,0,0,0,0,0,0,0,0,0,0,0,0,0,0,0,0,0,0.0719,0.072,0,0.0724,0.0724,0.0724,0.0687,0.0686,0.0685,0.0684,0.0643,0.0643,0.0643,0,0,0,0,0,0,0,0,0,0,0,0,0,0.0589,0.0592,0.0719,0.072,0.072,0.0724,0.0724,0.0724,0.0687,0.0686,0.0685,0.0684,0.0643,0.0643,0.0643,0,0,0,0,0,0,0,0,0,0,0,0,0,0.0624,0.0593,0.0719,0.0703,0.0702,0.0724,0.0724,0.0724,0.0687,0.0686,0.0685,0.0683,0.0643,0.0643,0.0643,0.0667,0,0,0.0641,0.0641,0,0,0,0,0,0,0,0,0.0622,0.0628,0.0705,0.0704,0.0703,0.0705,0.0663,0.0703,0.0688,0.0691,0.0684,0.0683,0.0662,0.066,0.0662,0.0665,0.0663,0.0641,0.0641,0.0641,0.0641,0,0,0,0,0,0,0,0.062,0.0627,0.0719,0.0706,0.0704,0.0665,0.0669,0.067,0.0682,0.0691,0.0688,0.0692,0.066,0.0662,0.066,0.0662,0.0641,0.0641,0.0641,0.0641,0.0734,0.0737,0,0,0,0,0,0,0.0629,0.0626,0.0719,0.072,0.066,0.0669,0.0673,0.0704,0.0683,0.0679,0.0693,0.069,0.0664,0.0661,0.0659,0.0729,0.0641,0.0641,0.064,0.0732,0.0735,0.0738,0,0,0,0,0,0,0.0627,0.0639,0.0719,0.0672,0.068,0.0673,0.0708,0.0705,0.0703,0.0685,0.068,0.0693,0.0663,0.0659,0.0675,0.0725,0.064,0.064,0.0728,0.0733,0.0736,0.0841,0,0,0,0,0,0,0.0624,0.0639,0.0663,0.0674,0.0683,0.0738,0.0709,0.0706,0.0708,0.0704,0.0684,0.0678,0.0661,0.0676,0.0674,0.0723,0.064,0.0725,0.073,0.0735,0.0834,0.0848,0.086,0,0,0,0,0,0.0619,0.0658,0.0665,0.0675,0.0718,0.074,0.0741,0.0728,0.0709,0.0718,0.0712,0.0679,0.0708,0.0677,0.0675,0.0725,0.0722,0.0729,0.0735,0.0828,0.0845,0.086,0,0,0,0,0,0,0.061,0.0658,0.0666,0.0717,0.0731,0.0734,0.0743,0.0733,0.0735,0.0731,0.0704,0.0701,0.0741,0.0719,0.0686,0.077,0.0714,0.072,0.0786,0.0802,0.0815,0.0862,0.0639,0,0,0,0,0,0.0624,0.0668,0.0695,0.0734,0.0745,0.0744,0.075,0.0747,0.075,0.0748,0.074,0.0743,0.0768,0.0769,0.0783,0.0816,0.0792,0.0852,0.0865,0.0876,0.0916,0.0925,0.0943,0.0758,0.0758,0.0758,0,0,0.0628,0.0662,0.0685,0.0735,0.0743,0.0781,0.0744,0.0763,0.0802,0.0746,0.079,0.0787,0.0789,0.084,0.0856,0.0822,0.0909,0.0884,0.0893,0.0928,0.0934,0.0951,0.0967,0.0762,0.0761,0.0761,0,0,0.0652,0.0693,0.0731,0.0757,0.0785,0.0801,0.0809,0.0824,0.0839,0.0878,0.0866,0.0905,0.0908,0.0947,0.096,0.1056,0.0983,0.1041,0.1139,0.1147,0.1162,0.1175,0.1131,0.114,0.1041,0.1042,0.1042,0,0.0647,0.0723,0.074,0.0782,0.0819,0.0816,0.0865,0.0889,0.0909,0.0948,0.0905,0.0986,0.098,0.1078,0.1115,0.1091,0.105,0.1073,0.1163,0.1176,0.1188,0.114,0.1148,0.1047,0.1047,0.1046,0.1046,0,0.0703,0.0764,0.0788,0.086,0.0894,0.094,0.0981,0.1021,0.1035,0.1064,0.1152,0.1153,0.1205,0.121,0.119,0.1287,0.1213,0.1179,0.1119,0.1213,0.1156,0.1162,0.1056,0.1054,0.1052,0.105,0,0,0.07,0.0808,0.0819,0.088,0.095,0.0991,0.1073,0.1164,0.1241,0.1258,0.1358,0.1414,0.141,0.1429,0.1411,0.1425,0.1458,0.1337,0.1335,0.1287,0.1423,0.1334,0.1331,0.1415,0.1418,0.142,0.1335,0,0.0743,0.0852,0.0894,0.1009,0.108,0.1127,0.1213,0.1291,0.1349,0.1441,0.1474,0.1551,0.1492,0.152,0.1532,0.1502,0.1485,0.1481,0.1348,0.1345,0.125,0.1341,0.1226,0.1139,0.1341,0.1342,0.1343,0,0.08,0.0873,0.0991,0.1132,0.1165,0.1228,0.1387,0.1461,0.1585,0.1628,0.1704,0.1714,0.1791,0.1697,0.1685,0.1672,0.1565,0.1507,0.1501,0.1399,0.1271,0.1088,0.1142,0.0997,0.1352,0.1351,0.1351,0,0.0834,0.0956,0.1064,0.1108,0.1247,0.1316,0.1392,0.1523,0.1624,0.1749,0.1826,0.1884,0.1928,0.1847,0.1746,0.1706,0.1686,0.1608,0.1416,0.1405,0.128,0.1255,0.1182,0.1569,0.157,0.157,0.157,0,0.0903,0.099,0.1087,0.1153,0.1289,0.136,0.152,0.1604,0.1749,0.1898,0.192,0.2035,0.1966,0.1946,0.1804,0.1652,0.1724,0.1468,0.1404,0.1308,0.1287,0.1131,0.1048,0.1567,0.1567,0.1568,0.1568,0,0.0944,0.1011,0.1135,0.1268,0.1316,0.141,0.1588,0.1712,0.1824,0.2016,0.2063,0.2164,0.2141,0.2025,0.1906,0.1733,0.1468,0.149,0.1362,0.1287,0.096,0.0886,0.0747,0.0694,0.1272,0.1269,0.1267,0,0.0987,0.1053,0.1198,0.1276,0.1338,0.1479,0.1597,0.1739,0.1882,0.2106,0.2213,0.2252,0.2312,0.2098,0.1797,0.1519,0.1383,0.1208,0.1135,0.0963,0.0834,0.0786,0.0751,0.098,0.0976,0.0973,0.097,0,0.1051,0.1088,0.1179,0.1337,0.146,0.1615,0.1787,0.1911,0.2106,0.2262,0.2461,0.2519,0.2302,0.2013,0.162,0.1403,0.1072,0.1127,0.1,0.0666,0.0561,0.0471,0.0981,0.094,0.0943,0.0945,0.0947,0.0948,0.108,0.1144,0.126,0.1411,0.1555,0.1752,0.1881,0.2077,0.2301,0.2539,0.2606,0.2663,0.2207,0.1667,0.1386,0.0756,0.0836,0.0556,0.0494,0.0473,0.0401,0.0835,0.0698,0.07,0.0701,0.0702,0.0703,0,0.1118,0.1203,0.1341,0.1522,0.1672,0.1757,0.2016,0.2149,0.2396,0.258,0.2731,0.2455,0.1914,0.1364,0.0531,0.0186,0.0093,0.0022,-0.0068,-0.0059,0.0352,0.0319,0.0035,0.0035,0.0035,0.0035,0.0036,0.0036,0.1152,0.1263,0.1342,0.1585,0.1717,0.1922,0.2064,0.2268,0.2427,0.2559,0.2518,0.2505,0.2021,0.0711,-0.0157,-0.0331,-0.0458,-0.0569,-0.0545,-0.0288,-0.0242,-0.0198,-0.0244,-0.0642,-0.0643,-0.0949,-0.0953,-0.0955]}],[{"header":{"parameterUnit":"m.s-1","parameterCategory":2,"la1":30.2991,"la2":30.254,"lo1":-89.0895,"lo2":-89.0444,"dy":0.0017,"dx":0.0017,"nx":28,"ny":28,"refTime":"2024-08-14T21:00:00:Z","depth":"2","parameterNumber":2,"parameterNumberName":"U-component_of_CURRENTS"},"data":[0,0,0,0,0,0,0,0,0,0,0,0,0,0,0,0,0,0,0,0,0,0,0,0,0,0,0,0,0,0,0,0,0,0,0,0,0,0,0,0,0,0,0,0,0,0,0,0,0,0,0,0,0,0,0,0,0,0,0.3328,0.3332,0,0.3432,0.343,0.3429,0.3488,0.3491,0.3494,0.3497,0.3596,0.3596,0.3596,0,0,0,0,0,0,0,0,0,0,0,0,0,0.2988,0.2993,0.3328,0.3332,0.3336,0.3432,0.343,0.3429,0.3488,0.3491,0.3495,0.3498,0.3596,0.3596,0.3596,0,0,0,0,0,0,0,0,0,0,0,0,0,0.3091,0.2994,0.3327,0.3397,0.3407,0.3432,0.343,0.3429,0.3487,0.3491,0.3496,0.35,0.3596,0.3596,0.3596,0.3511,0,0,0.3596,0.3596,0,0,0,0,0,0,0,0,0.3085,0.31,0.3383,0.3393,0.3404,0.3476,0.3349,0.3466,0.3486,0.3426,0.3497,0.3502,0.3571,0.3573,0.3543,0.3516,0.352,0.3596,0.3596,0.3596,0.3596,0,0,0,0,0,0,0,0.3078,0.3095,0.334,0.3388,0.3401,0.336,0.3378,0.3368,0.3451,0.3432,0.3444,0.3499,0.3573,0.3542,0.3546,0.3522,0.3596,0.3596,0.3596,0.3596,0.3855,0.3861,0,0,0,0,0,0,0.3129,0.309,0.3337,0.3346,0.3284,0.3366,0.3384,0.3425,0.3452,0.3469,0.3496,0.3502,0.354,0.3546,0.355,0.3764,0.3596,0.3596,0.3596,0.3848,0.3856,0.3863,0,0,0,0,0,0,0.3121,0.3149,0.3334,0.3243,0.3268,0.3372,0.3414,0.3426,0.3502,0.3506,0.3517,0.3577,0.3544,0.355,0.3619,0.3758,0.3596,0.3596,0.384,0.385,0.386,0.3994,0,0,0,0,0,0,0.311,0.3144,0.3172,0.3247,0.3276,0.3423,0.3414,0.3426,0.3538,0.3548,0.3577,0.3584,0.3547,0.3619,0.3619,0.3755,0.3596,0.3831,0.3844,0.3857,0.3981,0.4007,0.403,0,0,0,0,0,0.3097,0.3148,0.3171,0.3203,0.3316,0.343,0.3438,0.3503,0.3539,0.3581,0.36,0.3589,0.3706,0.3621,0.362,0.376,0.3825,0.3841,0.3856,0.397,0.4002,0.403,0,0,0,0,0,0,0.3074,0.3164,0.319,0.3283,0.3383,0.3453,0.3505,0.3557,0.3596,0.3622,0.3608,0.3615,0.3758,0.3736,0.3645,0.3888,0.3791,0.3807,0.3879,0.3909,0.3934,0.3897,0.3596,0,0,0,0,0,0.3069,0.3109,0.3219,0.3312,0.3357,0.3438,0.3493,0.3556,0.3619,0.3644,0.368,0.3734,0.3799,0.3835,0.3878,0.395,0.3916,0.4071,0.4095,0.4116,0.4096,0.4153,0.4178,0.3914,0.3914,0.3914,0,0,0.3122,0.3158,0.3206,0.3305,0.337,0.3461,0.3477,0.3609,0.3702,0.3645,0.3772,0.3818,0.3845,0.3955,0.4022,0.396,0.4184,0.4135,0.4151,0.4119,0.4172,0.4196,0.4218,0.3925,0.3923,0.3921,0,0,0.3214,0.325,0.3301,0.3372,0.3494,0.3532,0.3604,0.3723,0.3785,0.389,0.3919,0.4032,0.4104,0.4158,0.4187,0.4375,0.4323,0.445,0.4517,0.4576,0.4595,0.4611,0.4613,0.4629,0.4447,0.4448,0.4448,0,0.3258,0.3333,0.3352,0.3421,0.3503,0.3588,0.3698,0.376,0.3901,0.3951,0.3972,0.4145,0.4198,0.4321,0.4412,0.443,0.442,0.4384,0.4598,0.4614,0.4628,0.4626,0.4641,0.4456,0.4455,0.4454,0.4453,0,0.3374,0.345,0.3505,0.3586,0.3669,0.379,0.3894,0.399,0.4076,0.4134,0.4302,0.4349,0.4438,0.4536,0.452,0.4694,0.4641,0.4625,0.4495,0.4661,0.4651,0.4664,0.4468,0.4465,0.4462,0.446,0,0,0.341,0.3549,0.3566,0.3631,0.3766,0.3851,0.3995,0.4123,0.4204,0.4341,0.4446,0.4614,0.4632,0.4671,0.4713,0.4784,0.4916,0.4753,0.4752,0.4705,0.5002,0.4645,0.4623,0.4924,0.4927,0.493,0.4955,0,0.349,0.3631,0.3677,0.3852,0.3944,0.4035,0.4138,0.4265,0.4351,0.4458,0.4554,0.4661,0.4684,0.4739,0.4822,0.4905,0.4955,0.4907,0.4891,0.4889,0.4509,0.4629,0.4363,0.4333,0.4967,0.4969,0.497,0,0.3563,0.3632,0.3809,0.3953,0.3998,0.4104,0.425,0.4356,0.4489,0.4551,0.4653,0.4702,0.4855,0.4839,0.4999,0.4961,0.499,0.503,0.5031,0.4642,0.4554,0.4275,0.4332,0.4991,0.4989,0.4987,0.4986,0,0.3549,0.372,0.3853,0.3918,0.4089,0.4175,0.4259,0.4393,0.4454,0.4602,0.4644,0.4792,0.4864,0.4956,0.4995,0.5033,0.5099,0.5159,0.4849,0.4824,0.4559,0.45,0.5239,0.5239,0.5239,0.5239,0.5239,0,0.3584,0.3697,0.3858,0.3933,0.4048,0.4176,0.4284,0.438,0.449,0.4549,0.4672,0.4731,0.4899,0.4932,0.4996,0.4895,0.5086,0.4848,0.4805,0.4598,0.4546,0.5081,0.5062,0.524,0.524,0.524,0.524,0,0.3571,0.3698,0.3839,0.4007,0.4058,0.4139,0.4266,0.4318,0.4434,0.4517,0.4561,0.471,0.4741,0.4774,0.4899,0.4834,0.4821,0.4721,0.4411,0.4326,0.4534,0.4524,0.4471,0.4459,0.4448,0.4439,0.4432,0,0.3616,0.368,0.3845,0.3906,0.3989,0.4102,0.4158,0.4283,0.4325,0.4488,0.4514,0.4565,0.4509,0.4452,0.4378,0.4287,0.4499,0.3975,0.3995,0.449,0.4457,0.4463,0.4467,0.3751,0.3739,0.3729,0.3721,0,0.3643,0.3687,0.3765,0.3855,0.3943,0.4004,0.4099,0.4095,0.4231,0.421,0.4227,0.4192,0.414,0.3894,0.3701,0.3665,0.3969,0.3755,0.4398,0.3918,0.3793,0.3766,0.3798,0.3631,0.364,0.3646,0.3651,0.3655,0.3641,0.3664,0.3737,0.3801,0.3874,0.3883,0.3821,0.3827,0.3753,0.3654,0.3847,0.365,0.367,0.3206,0.307,0.3008,0.3298,0.326,0.3302,0.3353,0.3195,0.3051,0.2721,0.2724,0.2727,0.273,0.2733,0,0.359,0.3614,0.3681,0.371,0.3632,0.3757,0.3746,0.3558,0.3286,0.3292,0.3149,0.2819,0.2592,0.2646,0.2404,0.2333,0.2452,0.2275,0.248,0.2567,0.2645,0.2464,0.179,0.1787,0.1784,0.1781,0,0,0.3548,0.355,0.3558,0.3446,0.3433,0.3298,0.3213,0.2934,0.284,0.2478,0.2351,0.2463,0.2572,0.2153,0.2072,0.1917,0.2252,0.1845,0.2606,0.2939,0.3014,0.3206,0.3017,0,0,0,0,0]},{"header":{"parameterUnit":"m.s-1","parameterCategory":2,"la1":30.2991,"la2":30.254,"lo1":-89.0895,"lo2":-89.0444,"dy":0.0017,"dx":0.0017,"nx":28,"ny":28,"refTime":"2024-08-14T21:00:00:Z","depth":"2","parameterNumber":3,"parameterNumberName":"V-component_of_CURRENTS"},"data":[0,0,0,0,0,0,0,0,0,0,0,0,0,0,0,0,0,0,0,0,0,0,0,0,0,0,0,0,0,0,0,0,0,0,0,0,0,0,0,0,0,0,0,0,0,0,0,0,0,0,0,0,0,0,0,0,0,0,0.0093,0.0091,0,-0.0032,-0.0034,-0.0035,-0.0154,-0.0155,-0.0157,-0.0158,-0.031,-0.0312,-0.0315,0,0,0,0,0,0,0,0,0,0,0,0,0,0.0122,0.0123,0.0093,0.0091,0.009,-0.0032,-0.0034,-0.0036,-0.0154,-0.0155,-0.0157,-0.0159,-0.0309,-0.0312,-0.0315,0,0,0,0,0,0,0,0,0,0,0,0,0,0.0063,0.0123,0.0093,0.0018,0.001,-0.0031,-0.0034,-0.0036,-0.0154,-0.0155,-0.0157,-0.0159,-0.0308,-0.0312,-0.0316,-0.0303,0,0,-0.0329,-0.0331,0,0,0,0,0,0,0,0,0.0067,0.0062,0.003,0.0023,0.0014,-0.0078,-0.0079,-0.0126,-0.0153,-0.0094,-0.0158,-0.016,-0.0232,-0.0242,-0.0264,-0.031,-0.0316,-0.0329,-0.0332,-0.0334,-0.0335,0,0,0,0,0,0,0,0.0071,0.0066,0.0041,0.0029,0.0019,-0.0046,-0.0056,-0.0089,-0.0152,-0.0099,-0.0107,-0.0117,-0.0237,-0.026,-0.0269,-0.0319,-0.0329,-0.0333,-0.0335,-0.0337,-0.043,-0.0429,0,0,0,0,0,0,0.0099,0.0071,0.0045,0.0038,0.0039,-0.0044,-0.0055,-0.0048,-0.0152,-0.0169,-0.0115,-0.0122,-0.0251,-0.0263,-0.0274,-0.0292,-0.0334,-0.0338,-0.034,-0.043,-0.043,-0.0429,0,0,0,0,0,0,0.01,0.0099,0.005,0.0051,0.0041,-0.0041,-0.0033,-0.0049,-0.0102,-0.0163,-0.0182,-0.0154,-0.0254,-0.0268,-0.0323,-0.0297,-0.0339,-0.0343,-0.043,-0.043,-0.043,-0.0309,0,0,0,0,0,0,0.0102,0.01,0.0113,0.0055,0.0042,0.0022,-0.0031,-0.005,-0.0102,-0.0113,-0.0202,-0.0217,-0.0256,-0.0317,-0.0327,-0.0304,-0.0347,-0.043,-0.043,-0.043,-0.0313,-0.0304,-0.0297,0,0,0,0,0,0.0104,0.0123,0.0115,0.0111,0.0064,0.0023,0.001,-0.0058,-0.0102,-0.0115,-0.0182,-0.0216,-0.0323,-0.032,-0.0333,-0.031,-0.043,-0.043,-0.043,-0.0316,-0.0306,-0.0297,0,0,0,0,0,0,0.012,0.0111,0.0101,0.0111,0.0073,0.0003,-0.0016,-0.0064,-0.0128,-0.0146,-0.0217,-0.0235,-0.0274,-0.0314,-0.0309,-0.034,-0.0381,-0.0383,-0.029,-0.0281,-0.0274,-0.022,-0.035,0,0,0,0,0,0.0142,0.0164,0.0127,0.0132,0.0118,0.005,0.0021,-0.0022,-0.0083,-0.0116,-0.0178,-0.0238,-0.0276,-0.0299,-0.0346,-0.0358,-0.0379,-0.0354,-0.0346,-0.0339,-0.0306,-0.031,-0.0298,-0.0429,-0.0429,-0.0429,0,0,0.0143,0.0145,0.0152,0.0139,0.0101,0.0085,0.0026,-0.0014,-0.0032,-0.0118,-0.0169,-0.022,-0.0279,-0.0297,-0.0316,-0.0329,-0.032,-0.0339,-0.0332,-0.0302,-0.0308,-0.0295,-0.0283,-0.0429,-0.0429,-0.0429,0,0,0.0157,0.0165,0.0184,0.0164,0.013,0.01,0.0087,0.0019,-0.0015,-0.0056,-0.0121,-0.0151,-0.0229,-0.0245,-0.0266,-0.0244,-0.0287,-0.0272,-0.0175,-0.0179,-0.0167,-0.0157,-0.0186,-0.0179,-0.0257,-0.0257,-0.0257,0,0.0161,0.0186,0.0174,0.0178,0.0165,0.0108,0.0103,0.0071,-0.001,-0.0005,-0.0062,-0.0132,-0.0192,-0.0178,-0.0172,-0.0219,-0.0241,-0.02,-0.0164,-0.0154,-0.0145,-0.0178,-0.0172,-0.0251,-0.0252,-0.0252,-0.0253,0,0.0186,0.0197,0.0199,0.0205,0.0189,0.0176,0.0142,0.0126,0.0082,0.0065,0.0053,-0.0018,-0.0044,-0.0073,-0.0116,-0.0076,-0.012,-0.0158,-0.0174,-0.0123,-0.0163,-0.0159,-0.0243,-0.0245,-0.0246,-0.0248,0,0,0.021,0.0223,0.022,0.0234,0.0207,0.0199,0.0196,0.0203,0.0227,0.017,0.0207,0.0144,0.0129,0.0104,0.005,0.0051,0.0075,-0.0013,-0.0017,-0.0019,0.0052,-0.002,-0.0023,0.0047,0.0049,0.005,-0.0006,0,0.023,0.0269,0.0258,0.0271,0.0285,0.0257,0.0269,0.0271,0.0267,0.0294,0.0269,0.0272,0.019,0.0189,0.0181,0.0107,0.0095,0.0093,-0.0016,-0.0019,-0.0069,-0.0016,0.0014,-0.0035,-0.0002,-0.0001,-0.0001,0,0.0249,0.0285,0.0317,0.0343,0.0344,0.0341,0.0384,0.0389,0.0432,0.0441,0.0465,0.0436,0.0447,0.0356,0.0288,0.0291,0.019,0.0121,0.0116,0.002,-0.0081,-0.008,-0.0029,0.0006,0.0005,0.0005,0.0004,0,0.0295,0.0315,0.0357,0.036,0.0383,0.0394,0.0403,0.0438,0.0489,0.0548,0.0606,0.0592,0.06,0.0501,0.0349,0.0329,0.0255,0.02,0.0037,0.0028,0.0021,0.001,0.015,0.015,0.015,0.015,0.015,0,0.0338,0.0361,0.0382,0.0409,0.0459,0.0448,0.0515,0.0536,0.0612,0.0722,0.069,0.0774,0.0641,0.0577,0.0416,0.0247,0.03,0.0078,0.0026,0.0057,0.005,0.0058,0.0048,0.0148,0.0148,0.0149,0.0149,0,0.0376,0.0393,0.0438,0.0472,0.0481,0.0516,0.058,0.0654,0.071,0.0855,0.0891,0.0928,0.0856,0.067,0.0508,0.0337,0.017,0.0078,0.0108,0.0061,-0.0072,-0.0076,-0.0074,-0.0077,-0.0079,-0.0081,-0.0082,0,0.0393,0.043,0.0481,0.0515,0.0524,0.0577,0.0633,0.0698,0.0798,0.0964,0.1057,0.1042,0.1053,0.0766,0.0468,0.0167,0.0134,-0.0016,-0.0049,-0.0036,-0.0087,-0.0087,-0.0087,-0.0023,-0.0024,-0.0024,-0.0025,0,0.0422,0.0442,0.0485,0.0573,0.0624,0.0715,0.08,0.0908,0.1033,0.1173,0.1351,0.1372,0.11,0.0835,0.0391,0.0193,0.0038,-0.0044,-0.0002,0.0018,0.0005,-0.0043,-0.0043,-0.0032,-0.0031,-0.0031,-0.003,-0.003,0.0424,0.0459,0.0528,0.0615,0.0703,0.0859,0.097,0.1099,0.1299,0.1494,0.1513,0.1533,0.1195,0.0644,0.0313,-0.0031,-0.0032,-0.015,-0.0144,-0.0137,-0.0132,-0.0149,-0.0215,-0.0216,-0.0216,-0.0216,-0.0217,0,0.0431,0.0488,0.0568,0.0701,0.0849,0.088,0.1094,0.1217,0.147,0.1588,0.1685,0.1391,0.1075,0.0709,0.0187,-0.0146,-0.0141,-0.0226,-0.0141,-0.0133,-0.0127,-0.0118,-0.0199,-0.02,-0.02,-0.0201,0,0,0.0451,0.0518,0.0578,0.0805,0.092,0.1114,0.126,0.1439,0.1561,0.1669,0.1678,0.1571,0.1162,0.0785,0.0356,0.0092,0.006,0.004,0.0054,0.0211,0.0222,-0.0064,-0.0041,0,0,0,0,0]}],[{"header":{"parameterUnit":"m.s-1","parameterCategory":2,"la1":30.2991,"la2":30.254,"lo1":-89.0895,"lo2":-89.0444,"dy":0.0017,"dx":0.0017,"nx":28,"ny":28,"refTime":"2024-08-14T21:00:00:Z","depth":"4","parameterNumber":2,"parameterNumberName":"U-component_of_CURRENTS"},"data":[0,0,0,0,0,0,0,0,0,0,0,0,0,0,0,0,0,0,0,0,0,0,0,0,0,0,0,0,0,0,0,0,0,0,0,0,0,0,0,0,0,0,0,0,0,0,0,0,0,0,0,0,0,0,0,0,0,0,0.0864,0.0864,0,0.0937,0.0938,0.0939,0.1004,0.1005,0.1005,0.1006,0.1076,0.1077,0.1078,0,0,0,0,0,0,0,0,0,0,0,0,0,0.0888,0.0886,0.0864,0.0864,0.0865,0.0937,0.0938,0.094,0.1004,0.1005,0.1005,0.1006,0.1075,0.1077,0.1079,0,0,0,0,0,0,0,0,0,0,0,0,0,0.0912,0.0886,0.0863,0.0905,0.0909,0.0937,0.0939,0.094,0.1004,0.1005,0.1006,0.1006,0.1075,0.1077,0.1079,0.1074,0,0,0.1085,0.1086,0,0,0,0,0,0,0,0,0.0911,0.0911,0.0898,0.0902,0.0907,0.0961,0.0973,0.0984,0.1004,0.097,0.1006,0.1007,0.1035,0.1041,0.1055,0.1077,0.108,0.1085,0.1086,0.1087,0.1088,0,0,0,0,0,0,0,0.0909,0.0909,0.0895,0.0898,0.0904,0.0957,0.096,0.0976,0.0998,0.0973,0.0977,0.0982,0.1038,0.1053,0.1057,0.1081,0.1085,0.1087,0.1088,0.1089,0.123,0.1233,0,0,0,0,0,0,0.0889,0.0907,0.0892,0.0897,0.0909,0.0955,0.0959,0.0944,0.0998,0.1007,0.0981,0.0985,0.1049,0.1055,0.106,0.1113,0.1087,0.1089,0.109,0.1228,0.1231,0.1234,0,0,0,0,0,0,0.0889,0.0886,0.0889,0.0904,0.0908,0.0953,0.0936,0.0945,0.099,0.1004,0.1014,0.102,0.105,0.1057,0.1102,0.1114,0.109,0.1092,0.1225,0.1229,0.1232,0.1182,0,0,0,0,0,0,0.0889,0.0885,0.0905,0.0901,0.0906,0.0932,0.0935,0.0946,0.0989,0.0995,0.104,0.1045,0.1051,0.1099,0.1104,0.1116,0.1093,0.1222,0.1227,0.1231,0.118,0.1184,0.1186,0,0,0,0,0,0.0889,0.0909,0.0905,0.0905,0.0918,0.0933,0.0942,0.0979,0.099,0.1021,0.1047,0.1046,0.1134,0.1102,0.1107,0.112,0.1219,0.1225,0.1231,0.1179,0.1183,0.1186,0,0,0,0,0,0,0.092,0.0916,0.0913,0.0927,0.0938,0.0944,0.0977,0.0994,0.1039,0.1045,0.1062,0.107,0.1129,0.114,0.1104,0.1186,0.1184,0.1191,0.1143,0.1147,0.115,0.1239,0.1095,0,0,0,0,0,0.0932,0.0956,0.0942,0.0959,0.0955,0.0968,0.0991,0.1005,0.1026,0.1048,0.109,0.1127,0.1152,0.1161,0.1208,0.1225,0.1267,0.125,0.1253,0.1255,0.1339,0.136,0.1372,0.1253,0.1253,0.1252,0,0,0.0936,0.0951,0.0956,0.0971,0.0973,0.0973,0.0985,0.101,0.1034,0.1045,0.1118,0.1151,0.1171,0.1208,0.1233,0.1213,0.1307,0.1262,0.1262,0.1348,0.1368,0.1379,0.1389,0.1257,0.1256,0.1255,0,0,0.095,0.0968,0.0979,0.0991,0.1008,0.1012,0.1021,0.1046,0.1084,0.1137,0.1155,0.1224,0.1254,0.1288,0.1293,0.1352,0.134,0.1338,0.1393,0.1409,0.1419,0.1428,0.1463,0.1476,0.1313,0.1313,0.1312,0,0.0952,0.0967,0.0989,0.0998,0.1018,0.1023,0.1029,0.1053,0.111,0.1173,0.1168,0.1303,0.1312,0.1363,0.1379,0.1361,0.1361,0.1351,0.1408,0.1419,0.1429,0.1464,0.1478,0.1311,0.1311,0.1311,0.1311,0,0.095,0.098,0.0985,0.0997,0.1027,0.1037,0.1052,0.1103,0.1152,0.1218,0.1339,0.1369,0.1475,0.1444,0.1419,0.1491,0.1464,0.1415,0.1383,0.1437,0.1471,0.1487,0.1308,0.1309,0.1309,0.131,0,0,0.0896,0.0965,0.0971,0.1001,0.1033,0.1052,0.109,0.1163,0.1245,0.1321,0.145,0.15,0.1589,0.1611,0.1589,0.1582,0.162,0.1518,0.1519,0.1531,0.1653,0.1512,0.1515,0.1528,0.1531,0.1534,0.1634,0,0.0881,0.0919,0.0966,0.101,0.1023,0.1069,0.1122,0.1207,0.1307,0.1443,0.1514,0.1643,0.1617,0.1667,0.167,0.1644,0.1666,0.16,0.1628,0.1632,0.1477,0.1532,0.1545,0.1646,0.165,0.1653,0.1654,0,0.0865,0.0903,0.0944,0.1053,0.1063,0.1097,0.1228,0.1303,0.1475,0.1561,0.1716,0.1798,0.1885,0.1826,0.1869,0.1805,0.1781,0.1736,0.1736,0.1659,0.1522,0.1597,0.1684,0.1682,0.168,0.1678,0.1676,0,0.0841,0.0907,0.096,0.0981,0.1075,0.1126,0.1204,0.1367,0.1454,0.1689,0.1787,0.1925,0.2011,0.199,0.195,0.1906,0.1946,0.1872,0.1747,0.1737,0.1852,0.1842,0.1947,0.1947,0.1947,0.1946,0.1946,0,0.0827,0.0873,0.0957,0.0976,0.1056,0.1159,0.1296,0.1396,0.1566,0.1704,0.1891,0.1974,0.2048,0.2074,0.2006,0.1929,0.2012,0.1822,0.1766,0.1825,0.1811,0.1861,0.1849,0.195,0.1949,0.1949,0.1948,0,0.0809,0.0858,0.0914,0.1007,0.1047,0.1127,0.1281,0.139,0.1576,0.1747,0.1822,0.2025,0.2094,0.2118,0.2105,0.2009,0.1929,0.1883,0.1988,0.1926,0.1709,0.1694,0.1797,0.1793,0.1789,0.1787,0.1784,0,0.0796,0.0826,0.0916,0.0935,0.0979,0.1104,0.1189,0.137,0.148,0.1735,0.1795,0.1972,0.2083,0.1998,0.2007,0.1937,0.1886,0.1862,0.1789,0.1765,0.1701,0.1691,0.1681,0.1779,0.1778,0.1777,0.1777,0,0.0758,0.0802,0.0837,0.0899,0.0967,0.1036,0.1172,0.1227,0.147,0.1617,0.1749,0.1816,0.192,0.1933,0.1916,0.1829,0.1876,0.1828,0.1834,0.1765,0.1745,0.1682,0.1676,0.1765,0.1767,0.1768,0.1769,0,0.073,0.0724,0.0787,0.0846,0.0925,0.0975,0.1044,0.1169,0.1289,0.1567,0.1582,0.1765,0.1908,0.1875,0.1808,0.1769,0.1739,0.1652,0.1667,0.168,0.1583,0.1537,0.1491,0,0,0,0,0,0.0687,0.0687,0.0726,0.077,0.0859,0.0906,0.1043,0.1124,0.1343,0.14,0.1487,0.157,0.1611,0.1676,0.161,0.1721,0.1716,0.163,0.1617,0.1702,0.1715,0.1605,0,0,0,0,0,0,0.0656,0.0683,0.0705,0.0743,0.0761,0.0843,0.0928,0.1042,0.1086,0.1295,0.1331,0.1448,0.1506,0.163,0.1574,0.1583,0.1533,0.1704,0.1699,0.1695,0.1707,0.1717,0.1608,0,0,0,0,0]},{"header":{"parameterUnit":"m.s-1","parameterCategory":2,"la1":30.2991,"la2":30.254,"lo1":-89.0895,"lo2":-89.0444,"dy":0.0017,"dx":0.0017,"nx":28,"ny":28,"refTime":"2024-08-14T21:00:00:Z","depth":"4","parameterNumber":3,"parameterNumberName":"V-component_of_CURRENTS"},"data":[0,0,0,0,0,0,0,0,0,0,0,0,0,0,0,0,0,0,0,0,0,0,0,0,0,0,0,0,0,0,0,0,0,0,0,0,0,0,0,0,0,0,0,0,0,0,0,0,0,0,0,0,0,0,0,0,0,0,0.0219,0.0219,0,0.0178,0.0177,0.0176,0.015,0.015,0.0151,0.0151,0.0047,0.0044,0.0041,0,0,0,0,0,0,0,0,0,0,0,0,0,0.0209,0.0209,0.0219,0.0219,0.0219,0.0179,0.0177,0.0176,0.015,0.015,0.0151,0.0151,0.0048,0.0044,0.004,0,0,0,0,0,0,0,0,0,0,0,0,0,0.0189,0.0209,0.0219,0.0206,0.0205,0.0179,0.0177,0.0176,0.015,0.015,0.0151,0.0151,0.0049,0.0045,0.004,-0.0002,0,0,0.0025,0.0023,0,0,0,0,0,0,0,0,0.019,0.0189,0.0208,0.0207,0.0206,0.0175,0.0136,0.0116,0.015,0.0164,0.0151,0.0152,0.0088,0.008,0.0063,-0.0006,-0.0011,0.0025,0.0022,0.002,0.0019,0,0,0,0,0,0,0,0.0192,0.019,0.0197,0.0208,0.0207,0.018,0.0178,0.0131,0.0117,0.0163,0.0162,0.0168,0.0086,0.0067,0.006,-0.0012,0.0025,0.0021,0.0018,0.0016,-0.0136,-0.0137,0,0,0,0,0,0,0.0212,0.0192,0.0198,0.0196,0.0206,0.018,0.0178,0.0179,0.0119,0.0112,0.0167,0.0167,0.0075,0.0066,0.0056,0.0012,0.002,0.0016,0.0013,-0.0134,-0.0136,-0.0137,0,0,0,0,0,0,0.0212,0.0213,0.02,0.0198,0.0195,0.0181,0.0182,0.0178,0.017,0.0124,0.0115,0.0165,0.0075,0.0063,0.0017,0.0008,0.0014,0.0009,-0.0133,-0.0135,-0.0136,-0.0081,0,0,0,0,0,0,0.0212,0.0213,0.022,0.02,0.0197,0.0195,0.0182,0.0177,0.0175,0.0174,0.0119,0.0109,0.0075,0.0025,0.0013,0.0001,0.0006,-0.0131,-0.0134,-0.0136,-0.0082,-0.0081,-0.008,0,0,0,0,0,0.0211,0.023,0.022,0.0221,0.0207,0.0196,0.0191,0.0178,0.0174,0.0172,0.013,0.0112,0.0002,0.002,0.0006,-0.0006,-0.013,-0.0133,-0.0136,-0.0082,-0.0081,-0.008,0,0,0,0,0,0,0.023,0.0229,0.0218,0.0234,0.0219,0.0195,0.0199,0.0184,0.0149,0.0148,0.0099,0.0086,0.004,0.0005,0.0026,-0.006,-0.0069,-0.0075,-0.0024,-0.0024,-0.0023,-0.0011,0.0002,0,0,0,0,0,0.0237,0.025,0.0235,0.0246,0.0243,0.0218,0.0213,0.0201,0.0172,0.0159,0.0121,0.007,0.0014,-0.001,-0.0061,-0.0104,-0.0144,-0.0125,-0.0125,-0.0124,-0.0126,-0.0195,-0.0201,-0.0146,-0.0146,-0.0146,0,0,0.025,0.025,0.0258,0.0251,0.0238,0.023,0.0215,0.0214,0.0198,0.015,0.0119,0.0072,0.0002,-0.0048,-0.0072,-0.0074,-0.0161,-0.0127,-0.0125,-0.0129,-0.0199,-0.0204,-0.0208,-0.0148,-0.0147,-0.0147,0,0,0.0276,0.0278,0.0291,0.028,0.027,0.0251,0.0254,0.023,0.0211,0.0174,0.0129,0.0077,0.0007,-0.0049,-0.0088,-0.0119,-0.0156,-0.0132,-0.0117,-0.0184,-0.0188,-0.0193,-0.0242,-0.0251,-0.013,-0.013,-0.013,0,0.0285,0.03,0.0292,0.0293,0.0295,0.0263,0.0269,0.0236,0.0198,0.0182,0.0172,0.005,-0.0,-0.008,-0.0089,-0.0117,-0.015,-0.0106,-0.018,-0.0186,-0.0191,-0.0241,-0.0252,-0.0127,-0.0128,-0.0128,-0.0128,0,0.0313,0.0321,0.033,0.032,0.0316,0.0319,0.0284,0.026,0.0236,0.0209,0.0141,0.006,-0.0005,-0.0039,-0.0072,-0.0142,-0.0151,-0.0169,-0.0172,-0.0193,-0.0244,-0.0257,-0.0124,-0.0125,-0.0126,-0.0126,0,0,0.0336,0.0348,0.035,0.0356,0.0335,0.0338,0.0303,0.0273,0.026,0.0197,0.0166,0.0058,0.0033,-0.0016,-0.0074,-0.0139,-0.0204,-0.016,-0.0164,-0.0191,-0.0337,-0.0275,-0.0283,-0.0226,-0.0228,-0.0229,-0.0352,0,0.0354,0.0382,0.0377,0.0392,0.0402,0.0366,0.0344,0.031,0.0273,0.0233,0.0134,0.0088,0.0035,0.001,-0.0067,-0.0176,-0.0236,-0.0168,-0.0329,-0.0333,-0.0262,-0.0295,-0.0236,-0.0362,-0.0365,-0.0367,-0.0368,0,0.0374,0.0393,0.0429,0.0436,0.0438,0.0439,0.0415,0.04,0.0327,0.0294,0.0223,0.0158,0.0041,0.0009,-0.0189,-0.0138,-0.0226,-0.0312,-0.0319,-0.0289,-0.0295,-0.0344,-0.0391,-0.0389,-0.0388,-0.0386,-0.0385,0,0.0402,0.0425,0.0465,0.0469,0.0469,0.0472,0.0474,0.0429,0.0415,0.0353,0.0333,0.0188,0.0127,-0.003,-0.0192,-0.0191,-0.0399,-0.0423,-0.0456,-0.0452,-0.0493,-0.0487,-0.0551,-0.0551,-0.055,-0.055,-0.055,0,0.042,0.0445,0.0489,0.0506,0.0547,0.0539,0.057,0.0534,0.0487,0.0483,0.0393,0.033,0.0118,-0.0022,-0.0183,-0.0349,-0.0392,-0.046,-0.0484,-0.0467,-0.0457,-0.0501,-0.0494,-0.0555,-0.0553,-0.0553,-0.0552,0,0.0433,0.0462,0.0506,0.0541,0.0565,0.0602,0.0636,0.0644,0.0611,0.0592,0.0573,0.0422,0.0253,0.0047,-0.0206,-0.0307,-0.0493,-0.0532,-0.0484,-0.0502,-0.0508,-0.0497,-0.0603,-0.0602,-0.0601,-0.0601,-0.06,0,0.0446,0.0473,0.055,0.0587,0.0609,0.0676,0.0715,0.0705,0.0705,0.0641,0.0614,0.0471,0.0362,0.005,-0.0166,-0.045,-0.0476,-0.0554,-0.0553,-0.0503,-0.0517,-0.0507,-0.0497,-0.0599,-0.0598,-0.0598,-0.0598,0,0.0454,0.0485,0.0521,0.0618,0.0681,0.0748,0.0795,0.08,0.0791,0.0757,0.0647,0.0494,0.0322,0.0065,-0.0122,-0.0337,-0.0506,-0.0545,-0.0549,-0.055,-0.0499,-0.0511,-0.0502,-0.0595,-0.0595,-0.0595,-0.0596,0,0.0461,0.0484,0.0549,0.0635,0.0719,0.0786,0.082,0.0819,0.0819,0.074,0.07,0.0515,0.0388,0.0124,-0.0077,-0.025,-0.0306,-0.0358,-0.0373,-0.0379,-0.0268,-0.0168,-0.0188,0,0,0,0,0,0.0463,0.0492,0.056,0.0642,0.0728,0.0786,0.0848,0.0867,0.0873,0.0808,0.0748,0.0585,0.0312,0.0175,0.001,-0.007,-0.0336,-0.0267,-0.0404,-0.0578,-0.0581,-0.0483,0,0,0,0,0,0,0.0455,0.0511,0.0553,0.0653,0.071,0.0802,0.0857,0.0858,0.0811,0.0782,0.0628,0.0554,0.0273,0.0397,0.0004,-0.005,-0.0153,-0.0404,-0.0407,-0.0576,-0.0579,-0.0582,-0.0482,0,0,0,0,0]}]]